[[{"header":{"parameterUnit":"m.s-1","parameterCategory":1,"la1":30.2992,"la2":30.254,"lo1":-89.0895,"lo2":-89.0443,"dy":0.0025,"dx":0.0025,"nx":19,"ny":19,"refTime":"2026-04-26T09:00:00:Z","depth":0,"parameterNumber":2,"parameterNumberName":"U-component_of_WINDS"},"data":[0,0,0,-3.7213,-3.7214,-3.7282,-3.7282,-3.7386,-3.7387,0,0,0,0,0,0,0,0,0,0,0,-3.7205,-3.7206,-3.7212,-3.7215,-3.7282,-3.7282,-3.7386,-3.7387,0,0,0,0,0,0,0,0,0,0,0,-3.7204,-3.7205,-3.7207,-3.7215,-3.7282,-3.7282,-3.7385,-3.7328,0,0,0,0,0,0,0,0,0,0,-3.7259,-3.7264,-3.7205,-3.7207,-3.7215,-3.7282,-3.7282,-3.7325,-3.7331,-3.7363,0,-3.7396,0,-3.7393,-3.7395,-3.7396,0,0,0,-3.7205,-3.7259,-3.7266,-3.7207,-3.7216,-3.7282,-3.7249,-3.7328,-3.7336,-3.7372,-3.7397,-3.7401,-3.7395,-3.7396,-3.7397,-3.7615,-3.7616,0,0,-3.7201,-3.7223,-3.7261,-3.7272,-3.7264,-3.7247,-3.7251,-3.7333,-3.7361,-3.7398,-3.7403,-3.7397,-3.7397,-3.7398,-3.7613,-3.7615,0,0,0,-3.7197,-3.7221,-3.7226,-3.7268,-3.7279,-3.7249,-3.7254,-3.7357,-3.7357,-3.7404,-3.7398,-3.7397,-3.7399,-3.7612,-3.7614,-3.7707,0,0,0,-3.7194,-3.7218,-3.7225,-3.7238,-3.7278,-3.7319,-3.7277,-3.7351,-3.736,-3.7398,-3.7398,-3.74,-3.761,-3.7613,-3.7701,-3.7747,0,0,0,-3.7196,-3.7218,-3.7232,-3.7239,-3.7269,-3.7317,-3.7322,-3.7353,-3.7357,-3.7396,-3.74,-3.7609,-3.7612,-3.7696,-3.7738,-3.7811,0,0,0,-3.7204,-3.7314,-3.7234,-3.7354,-3.7269,-3.7375,-3.7321,-3.7398,-3.7443,-3.7398,-3.761,-3.7614,-3.7694,-3.7733,-3.7805,-3.7876,-3.7907,0,0,-3.7354,-3.7333,-3.7402,-3.7332,-3.7458,-3.7363,-3.7502,-3.7522,-3.7505,-3.7579,-3.7584,-3.7703,-3.7738,-3.781,-3.8077,-3.8102,0,0,0,-3.7456,-3.7506,-3.7535,-3.7579,-3.7598,-3.7617,-3.7613,-3.762,-3.7682,-3.7548,-3.7748,-3.7768,-3.781,-3.7842,-3.7864,-3.7897,-3.763,-3.7629,-3.7629,-3.77,-3.7674,-3.7786,-3.7768,-3.7812,-3.7807,-3.7839,-3.7848,-3.7808,-3.7856,-3.7877,-3.8043,-3.8082,-3.8098,-3.8134,-3.7913,-3.7913,-3.7913,-3.7914,-3.7917,-3.7984,-3.7929,-3.8019,-3.799,-3.8064,-3.8064,-3.8034,-3.8098,-3.8025,-3.8059,-3.7981,-3.8127,-3.8156,-3.792,-3.7919,-3.7918,-3.7918,-3.7917,-3.8073,-3.81,-3.8108,-3.8169,-3.8219,-3.8197,-3.8262,-3.8233,-3.8206,-3.8241,-3.826,-3.8259,-3.8253,-3.8252,-3.8253,-3.8254,-3.8254,-3.8254,-3.8255,-3.8232,-3.8238,-3.8296,-3.8326,-3.835,-3.8379,-3.8376,-3.8399,-3.8417,-3.839,-3.839,-3.8346,-3.8146,-3.8096,-3.8264,-3.8262,-3.8261,-3.826,-3.8259,-3.8461,-3.8405,-3.8496,-3.8521,-3.8553,-3.8604,-3.8567,-3.8616,-3.8631,-3.8664,-3.8612,-3.8469,-3.8444,-3.8427,-3.8385,-3.8617,-3.8617,-3.8617,-3.8617,-3.8592,-3.8577,-3.8664,-3.8705,-3.8743,-3.8719,-3.8821,-3.882,-3.8809,-3.8816,-3.8779,-3.8722,-3.8705,-3.869,-3.8667,-3.8628,-3.8916,-3.8916,-3.8917,-3.8732,-3.8719,-3.8812,-3.8803,-3.8826,-3.8846,-3.8941,-3.899,-3.8966,-3.8928,-3.8821,-3.8809,-3.8716,-3.8687,-3.8646,-3.8611,-3.8539,0,0]},{"header":{"parameterUnit":"m.s-1","parameterCategory":1,"la1":30.2992,"la2":30.254,"lo1":-89.0895,"lo2":-89.0443,"dy":0.0025,"dx":0.0025,"nx":19,"ny":19,"refTime":"2026-04-26T09:00:00:Z","depth":0,"parameterNumber":3,"parameterNumberName":"V-component_of_WINDS"},"data":[0,0,0,1.157,1.1568,1.147,1.1469,1.1362,1.1362,0,0,0,0,0,0,0,0,0,0,0,1.1613,1.1613,1.157,1.1568,1.147,1.1469,1.1362,1.1362,0,0,0,0,0,0,0,0,0,0,0,1.1613,1.1613,1.1613,1.1568,1.147,1.1469,1.1363,1.1429,0,0,0,0,0,0,0,0,0,0,1.1521,1.1576,1.1613,1.1613,1.1567,1.147,1.1469,1.1432,1.1425,1.1416,0,1.1414,0,1.1387,1.1356,1.1356,0,0,0,1.1556,1.1582,1.1543,1.1613,1.1566,1.147,1.1511,1.1428,1.142,1.1407,1.1412,1.1408,1.1385,1.1355,1.1355,1.1349,1.135,0,0,1.1562,1.1602,1.1549,1.1539,1.1558,1.1514,1.1508,1.1423,1.143,1.1412,1.1405,1.1383,1.1355,1.1354,1.1348,1.1349,0,0,0,1.1585,1.1606,1.1569,1.1544,1.1525,1.1511,1.1504,1.1434,1.1419,1.1403,1.1382,1.1354,1.1353,1.1348,1.1349,1.1416,0,0,0,1.1588,1.162,1.1572,1.1596,1.1527,1.1479,1.1518,1.1425,1.1414,1.1382,1.1354,1.1352,1.1347,1.1348,1.1413,1.1441,0,0,0,1.1614,1.1623,1.1614,1.1598,1.1558,1.1479,1.1459,1.1421,1.1401,1.1356,1.1352,1.1347,1.1348,1.141,1.1436,1.1453,0,0,0,1.1654,1.1672,1.1616,1.1628,1.1559,1.1523,1.1459,1.1428,1.1397,1.1354,1.1347,1.1349,1.1409,1.1433,1.145,1.1475,1.149,0,0,1.17,1.1679,1.1683,1.163,1.1615,1.1534,1.1527,1.1458,1.1414,1.1373,1.1372,1.1414,1.1436,1.1452,1.1553,1.1565,0,0,0,1.1712,1.1716,1.1703,1.1677,1.1628,1.1587,1.1516,1.149,1.1454,1.1403,1.1423,1.1434,1.1442,1.1452,1.1462,1.1467,1.1355,1.1355,1.1355,1.1834,1.1782,1.1785,1.1721,1.1697,1.1625,1.16,1.1553,1.1503,1.1509,1.1496,1.1564,1.1578,1.1585,1.1591,1.1504,1.1504,1.1505,1.1505,1.1898,1.1895,1.1833,1.1815,1.1758,1.174,1.1671,1.1637,1.1611,1.1569,1.1573,1.1532,1.16,1.1602,1.1509,1.1508,1.1508,1.1507,1.1507,1.1973,1.1963,1.1934,1.1894,1.1868,1.1801,1.1781,1.1728,1.1678,1.1682,1.1664,1.1663,1.1656,1.1677,1.1678,1.1678,1.1678,1.1678,1.1678,1.2063,1.2029,1.202,1.1972,1.195,1.1914,1.1843,1.1818,1.1778,1.1741,1.174,1.1691,1.1616,1.16,1.1682,1.1681,1.1681,1.1681,1.168,1.2148,1.2122,1.2108,1.2087,1.2026,1.2005,1.1939,1.1895,1.1867,1.1859,1.1809,1.1762,1.1736,1.1728,1.1713,1.182,1.182,1.182,1.182,1.2213,1.2196,1.2172,1.2142,1.2105,1.2045,1.2031,1.1976,1.1914,1.1893,1.187,1.1846,1.184,1.1818,1.1807,1.1793,1.1918,1.1918,1.1918,1.2263,1.2241,1.224,1.2183,1.2132,1.2089,1.2075,1.204,1.1964,1.1921,1.1876,1.1872,1.1833,1.1823,1.1779,1.1765,1.1737,0,0]}]]